Flag for Taiwan Weather past 2 weeks in Kaohsiung, Taiwan

Now
88 °F

Partly sunny.


Feels Like: 105 °F
Forecast: 81 / 94 °F
Wind: 10 mph from West

Location: Kaohsiung International Airport

Current Time: Jul 3, 2015 at 6:40:10 PM

Latest Report: Jul 3, 2015 at 6:00 PM


Visibility: N/A

Pressure: 29.62 "Hg

Humidity: 79%

Dew point: 81 °F

Location of KaohsiungLocation

Historic Weather in Kaohsiung — Graph

°F

Kaohsiung temperature yesterday

Maximum temperature yesterday: 91 °F (at 11:30 AM)
Minimum temperature yesterday: 84 °F (at 7:00 AM)
Average temperature yesterday: 88 °F

Past Weeks' High & Low Weather Summary

 TemperatureHumidityPressure
High93 °F (Jun 19, 9:30 AM)94% (Jun 23, 2:30 PM)29.89 "Hg (Jun 23, 2:30 PM)
Low81 °F (Jun 19, 4:00 AM)56% (Jun 22, 9:00 AM)29.62 "Hg (Jul 3, 3:30 PM)
Average88 °F75%29.76 "Hg
* Reported Jun 18 5:00 PM — Jul 3 5:30 PM, Kaohsiung, Weather by CustomWeather, © 2015

Note: Actual official high and low records may vary slightly from our data, if they occured in-between our weather recording intervals... More about our weather records

Advertising

Kaohsiung weather history for previous 24 hours

 ConditionsComfort  
Time TempWeatherWind HumidityBarometerVisibility
5:30 PM
Fri, Jul 3
88 °FBroken clouds.10 mph79%29.62 "HgN/A
5:00 PM88 °FBroken clouds.10 mph79%29.62 "HgN/A
4:30 PM88 °FBroken clouds.12 mph79%29.62 "HgN/A
4:00 PM90 °FBroken clouds.12 mph75%29.62 "HgN/A
3:30 PM90 °FBroken clouds.13 mph71%29.62 "HgN/A
3:00 PM90 °FBroken clouds.14 mph75%29.65 "HgN/A
2:30 PM91 °FBroken clouds.12 mph71%29.65 "HgN/A
2:00 PM91 °FBroken clouds.10 mph71%29.65 "HgN/A
1:30 PM90 °FBroken clouds.10 mph71%29.65 "HgN/A
1:03 PM91 °FBroken clouds.10 mph71%29.65 "HgN/A
12:30 PM90 °FBroken clouds.12 mph75%29.68 "HgN/A
11:30 AM90 °FBroken clouds.10 mph71%29.68 "HgN/A
11:00 AM90 °FBroken clouds.12 mph71%29.68 "HgN/A
10:30 AM90 °FScattered clouds.12 mph71%29.68 "HgN/A
10:00 AM90 °FScattered clouds.10 mph75%29.68 "HgN/A
9:30 AM90 °FScattered clouds.8 mph71%29.68 "HgN/A
9:00 AM88 °FScattered clouds.6 mph75%29.68 "HgN/A
8:30 AM88 °FScattered clouds.6 mph75%29.68 "HgN/A
8:00 AM88 °FBroken clouds.5 mph75%29.68 "HgN/A
7:30 AM88 °FScattered clouds.5 mph70%29.68 "HgN/A
7:00 AM84 °FPassing clouds.6 mph74%29.68 "HgN/A
6:30 AM82 °FPassing clouds.3 mph79%29.68 "HgN/A
5:00 AM81 °FPassing clouds.5 mph84%29.65 "HgN/A
4:00 AM82 °FPassing clouds.5 mph79%29.65 "HgN/A
3:00 AM81 °FPassing clouds.6 mph89%29.65 "HgN/A
2:00 AM84 °FPassing clouds.8 mph84%29.65 "HgN/A
1:00 AM84 °FPassing clouds.2 mph84%29.68 "HgN/A
12:00 AM86 °FPassing clouds.5 mph84%29.68 "HgN/A
11:30 PM
Thu, Jul 2
86 °FPassing clouds.7 mph84%29.68 "HgN/A
11:00 PM86 °FPassing clouds.5 mph79%29.71 "HgN/A
10:30 PM86 °FPassing clouds.6 mph79%29.71 "HgN/A
10:00 PM86 °FPassing clouds.3 mph79%29.71 "HgN/A
9:30 PM86 °FPassing clouds.5 mph79%29.71 "HgN/A
9:00 PM86 °FPassing clouds.5 mph79%29.68 "HgN/A
8:30 PM86 °FPassing clouds.3 mph79%29.68 "HgN/A
8:00 PM86 °FPartly cloudy.3 mph79%29.68 "HgN/A
7:30 PM86 °FPartly cloudy.7 mph79%29.68 "HgN/A
7:00 PM86 °FPassing clouds.7 mph79%29.68 "HgN/A
6:30 PM88 °FPartly sunny.8 mph75%29.65 "HgN/A
6:00 PM88 °FScattered clouds.9 mph75%29.65 "HgN/A
Weather by CustomWeather, © 2015

See weather overviewHow to use our weather pages